Location: Salillas
(41.9950°N, 0.2228°W)
Time: 00:14:50
(UTC+00:00)

SJ-6B - Pass Details

Date: 29 March 2020
Orbit: 509 x 582 km, 97.6° (Epoch: 05 June)

Event Time Altitude Azimuth Distance (km) Brightness Sun altitude
Exits shadow 19:42:38 13° 161° (SSE) 1,672 4.9 -15.1°
Maximum altitude 19:46:13 78° 76° (ENE) 591 2.8 -15.7°
Drops below altitude 10° 19:50:20 10° 350° (N) 1,900 6.0 -16.5°
Sets 19:52:31 0° 350° (N) 2,809 6.9 -16.8°
